Terug naar catalogus

THOR ABLESTAR DEB

ActiefLEO
NORAD 152·DEBRIS·🇺🇸 United States

Gelanceerd Jun 29, 1961 vanaf Cape Canaveral Space Force Station

Loading…

Volgende Passages (komende 24 uur)

TLE

VersSource: Space-Track

Epoch: Sep 13, 2026, 23:24 UTC

1 00152U 61015AN  26256.97507135 -.00000008  00000-0  37006-4 0  9998
2 00152  66.5919  93.0790 0145317 138.2148 223.0146 14.11584000338615

Volg THOR ABLESTAR DEB in realtime met AllMySat

Download on the App Store